User: anonymous   Login
Location: Newark
(49.3667°N, 21.6167°E)
Time: 06:07:12
(UTC+00:00)
Language:

Envisat - Orbit

View from above orbital plane
View from above orbital plane
View from above satellite
View from above satellite

Ground track
Ground track

The orbit data is extracted from the following two-line orbital elements,

1 27386U 02009A   20020.66540823  .00000018  00000-0  19569-4 0  9998
2 27386  98.1400  35.5149 0001183  88.0670  22.0053 14.37969106937231
Epoch (UTC): 20 January 2020 15:58:11
Eccentricity: 0.0001183
inclination: 98.1400°
perigee height: 764 km
apogee height: 766 km
right ascension of ascending node: 35.5149°
argument of perigee: 88.0670°
revolutions per day: 14.37969106
mean anomaly at epoch: 22.0053°
orbit number at epoch: 93723

The dashed part of the orbit path shows where the satellite is in the earth's shadow,  

DLR